• MPC Preparation (Info)

  • MPEC 2023-H68 : 2006 DB1

    The following Minor Planet Electronic Circular may be linked-to from your own Web pages, but must not otherwise be redistributed electronically.

    A form allowing access to any MPEC is at the bottom of this page.


    Read MPEC 2023-H67 Read MPEC 2023-H69


    M.P.E.C. 2023-H68                                Issued 2023 April 18, 14:10 UT
    
         The Minor Planet Electronic Circulars contain information on unusual
             minor planets, routine data on comets and natural satellites,
             and occasional editorial announcements.  They are published
        on behalf of Division F of the International Astronomical Union by the
              Minor Planet Center, Smithsonian Astrophysical Observatory,
                              Cambridge, MA 02138, U.S.A.
    			  
                 Prepared using the Tamkin Foundation Computer Network
    
                                  MPC@CFA.HARVARD.EDU
                URL https://www.minorplanetcenter.net/    ISSN 1523-6714
    
                                    2006 DB1                                 
    
    
                               Revision to MPEC 2006-D22                            
    
    Additional Observations:
         K06D01B  C2023 03 28.46631914 35 38.103-32 03 01.39         21.72GVEH068F51
         K06D01B  C2023 03 28.47532014 35 37.396-32 03 07.41         21.78GVEH068F51
         K06D01B  C2023 03 28.48435014 35 36.708-32 03 13.50         22.03GVEH068F51
         K06D01B  C2023 03 28.50563214 35 35.090-32 03 27.68         21.84GVEH068F51
         K06D01B  C2023 04 16.42725914 08 18.281-33 35 51.77         21.87wUEH068F52
         K06D01B  C2023 04 16.43745914 08 17.261-33 35 51.27         21.90wUEH068F52
         K06D01B  C2023 04 16.44762814 08 16.254-33 35 50.22         21.58wUEH068F52
    
    Observer details:
    F51 Pan-STARRS 1, Haleakala.  Observers J. Bulger, K. Chambers, T. Lowe, A.
        Schultz, I. Smith.  Measurers S. Chastel, J. Fairlamb, M. Huber, Y.
        Ramanjooloo, R. Wainscoat, R. Weryk.  1.8-m Ritchey-Chretien + CCD.
    F52 Pan-STARRS 2, Haleakala.  Observers J. Bulger, T. Lowe, A. Schultz, I.
        Smith.  Measurers K. Chambers, S. Chastel, T. de Boer, J. Fairlamb, H.
        Gao, M. Huber, C.-C. Lin, E. Magnier, Y. Ramanjooloo, R. Wainscoat, R.
        Weryk.  1.8-m Ritchey-Chretien + CCD.
    
    First and last observations above in comparison with prediction:
    Residuals in seconds of arc (or two decimals in degrees), reference and Delta-T
    230328 F51 0.23+ 0.06+    230416 F52 0.24+ 0.08+    MPO102286   +0.21 days
    
    Orbital elements:
    2006 DB1                                                 Earth MOID = 0.1971 AU
    Epoch 2023 Feb. 25.0 TT = JDT 2460000.5                 Veres                   
    M  11.12577              (2000.0)            P               Q                  
    n   0.23504326     Peri.  152.33865     -0.72662896     -0.68534066             
    a   2.6003842      Node   344.10100     +0.59341701     -0.59075829             
    e   0.5500399      Incl.   10.12352     +0.34621756     -0.42580843             
    P   4.19           H   21.02          G   0.15           U   0                  
    Residuals in seconds of arc
    060221 703  0.5-  0.7-    060222 704  0.4-  0.9+    060301 A62  0.0   0.2-
    060221 703  0.2-  0.0     060224 734  0.5+  0.3+    060301 A62  0.0   0.1-
    060221 703  0.4+  0.4-    060224 734  0.2-  0.6-    060303 704  0.7+  0.0
    060221 703  0.7-  0.5-    060224 734  0.1-  0.5-    060303 704  0.3+  0.4+
    060221 703  2.0-  0.6-    060225 704  0.4+  0.0     060303 704  1.1-  0.3+
    060221 703  0.6-  0.7-    060225 704  0.9+  0.0     060303 691  0.2-  0.2-
    060221 703  0.1+  0.2-    060225 704  0.1-  0.7+    060303 704  0.9-  0.1-
    060221 703  0.4+  0.5-    060225 704  1.3+  1.2+    060303 691  0.2-  0.0
    060222 A13  0.2-  0.7-    060225 704  0.9+  0.1+    060303 691  0.1-  0.2-
    060222 A13  0.3+  0.4-    060228 704  0.2-  0.7+    060305 G96  0.3+  0.3+
    060222 A13  0.1+  0.5-    060228 704  0.2-  0.3-    060305 G96  0.4+  0.2+
    060222 854  1.0-  0.2+    060228 704  0.4+  0.3+    060305 G96  0.1-  0.1+
    060222 854  0.4-  0.3+    060228 704  0.7+  1.2+    060305 G96  0.6+  0.3+
    060222 854  0.3+  0.8-    060228 704  0.3+  0.1+    060305 704  1.2+  0.3+
    060222 854  1.0-  0.5+    060301 170  0.0   0.3+    060305 704  0.1+  0.7-
    060222 H36 (1.2+  1.6-)   060301 170  0.0   0.1+    060305 704  0.9+  0.7-
    060222 H36  0.2-  0.7+    060301 170  0.0   0.1-    060309 691  0.1-  0.2-
    060222 H36  0.4+  1.0+    060301 A62  0.1+  0.2-    060309 691  0.0   0.2-
    060222 703  0.6-  1.6+    060301 A62  0.0   0.3-    060309 691  0.1-  0.1-
    060222 703  0.4-  0.4+    060301 A62  0.2+  0.1-    060320 246  0.5+  0.8-
    060222 703  0.2-  0.5+    060301 A62  0.1+  0.1+    060320 246  0.4-  0.4-
    060222 703  0.3+  1.2-    060301 A62  0.1+  0.1-    060320 246  0.0   0.7-
    060222 703  1.0+  0.0     060301 A62  0.2+  0.2-    060320 246  0.1+  0.1+
    060222 703  0.4+  0.4+    060301 A62  0.1+  0.2-    060419 291  0.0   0.5+
    060222 703  0.4+  0.6-    060301 A62  0.0   0.0     060419 291  0.4-  0.3+
    060222 703  0.5-  0.1+    060301 A62  0.2+  0.1-    060419 291  0.5-  0.4-
    060222 703  1.0-  0.3-    060301 A62  0.3+  0.0     230328 F51  0.2+  0.2+
    060222 703  0.4-  0.2-    060301 A62  0.1+  0.2-    230328 F51  0.1-  0.1+
    060222 703  0.8-  0.2+    060301 A62  0.2+  0.0     230328 F51  0.2-  0.0
    060222 703  0.4-  0.0     060301 A62  0.0   0.1-    230328 F51  0.1-  0.2-
    060222 703  0.0   0.7-    060301 A62  0.0   0.0     230416 F52  0.2+  0.3-
    060222 703  0.7-  0.4-    060301 A62  0.0   0.0     230416 F52  0.1+  0.2-
    060222 703  0.7+  1.0-    060301 A62  0.0   0.0     230416 F52  0.1+  0.4+
    060222 704  0.3+  1.1+    060301 A62  0.1-  0.1-
    060222 704  0.8+  0.1+    060301 A62  0.1+  0.0
    
    Ephemeris:
    2006 DB1                 a,e,i = 2.60, 0.55, 10                  q = 1.1701
    Date    TT    R. A. (2000) Decl.     Delta      r    Elong.  Phase     V
    2023 03 19    14 44 03.6 -29 54 41   0.5571  1.4125   128.7    33.3    21.9
    ...
    2023 04 03    14 28 35.4 -32 53 01   0.5818  1.5069   143.4    23.3    21.8
    ...
    2023 04 11    14 16 44.7 -33 31 38   0.6065  1.5599   150.9    18.2    21.8
    ...
    2023 04 17    14 07 25.1 -33 35 08   0.6318  1.6005   155.6    15.0    21.9
    2023 04 18    14 05 53.0 -33 33 46   0.6366  1.6073   156.3    14.5    21.9
    2023 04 19    14 04 21.7 -33 31 53   0.6416  1.6141   156.9    14.1    21.9
    ...
    2023 04 25    13 55 41.8 -33 10 53   0.6753  1.6554   159.6    12.3    22.0
    ...
    2023 05 03    13 46 00.3 -32 23 14   0.7308  1.7111   159.3    12.0    22.2
    ...
    2023 05 18    13 35 23.2 -30 28 38   0.8667  1.8163   150.4    15.9    22.9
    
    A. U. Tomatic                (C) Copyright 2023 MPC           M.P.E.C. 2023-H68
    


    Read MPEC 2023-H67 Read MPEC 2023-H69


    MPEC number:

    Enter an MPEC number in one of the following forms:

    • 1997-B01 (the full form)
    • J97B01 (the packed version of the full form)
    • B01 (the abbreviated form)